Location: Newark
(52.3500°N, 175.9667°E)
Time: 22:10:27
(UTC+00:00)

Altair - Pass Details

Date: 29 April 2021
Orbit: 1501 x 1683 km, 47.2° (Epoch: 05 May)

Event Time Altitude Azimuth Distance (km) Brightness Sun altitude
Rises 13:01:49 0° 172° (S) 4,920 - -22.2°
Reaches altitude 10° 13:07:37 10° 146° (SSE) 3,921 - -22.0°
Exits shadow 13:08:07 11° 144° (SE) 3,866 9.2 -22.0°
Maximum altitude 13:11:20 13° 124° (SE) 3,695 9.3 -21.8°
Drops below altitude 10° 13:15:01 10° 102° (ESE) 3,890 9.7 -21.7°
Sets 13:20:39 0° 77° (ENE) 4,844 10.5 -21.4°
